Year,Month,Day,Hour,Minute,Value (Times are PST for temperature in C)
2011,10,13,00,00,8.80
2011,10,13,00,01,8.80
2011,10,13,00,02,8.80
2011,10,13,00,03,8.80
2011,10,13,00,04,8.80
2011,10,13,00,05,8.70
2011,10,13,00,06,8.70
2011,10,13,00,07,8.70
2011,10,13,00,08,8.70
2011,10,13,00,09,8.70
2011,10,13,00,10,8.70
2011,10,13,00,11,8.70
2011,10,13,00,12,8.70
2011,10,13,00,13,8.70
2011,10,13,00,14,8.70
2011,10,13,00,15,8.70
2011,10,13,00,16,8.70
2011,10,13,00,17,8.70
2011,10,13,00,18,8.70
2011,10,13,00,19,8.70
2011,10,13,00,20,8.70
2011,10,13,00,21,8.70
2011,10,13,00,22,8.70
2011,10,13,00,23,8.70
2011,10,13,00,24,8.80
2011,10,13,00,25,8.80
2011,10,13,00,26,8.80
2011,10,13,00,27,8.80
2011,10,13,00,28,8.80
2011,10,13,00,29,8.80
2011,10,13,00,30,8.80
2011,10,13,00,31,8.80
2011,10,13,00,32,8.80
2011,10,13,00,33,8.80
2011,10,13,00,34,8.80
2011,10,13,00,35,8.80
2011,10,13,00,36,8.80
2011,10,13,00,37,8.80
2011,10,13,00,38,8.90
2011,10,13,00,39,8.90
2011,10,13,00,40,8.90
2011,10,13,00,41,8.90
2011,10,13,00,42,8.80
2011,10,13,00,43,8.80
2011,10,13,00,44,8.80
2011,10,13,00,45,8.80
2011,10,13,00,46,8.80
2011,10,13,00,47,8.70
2011,10,13,00,48,8.70
2011,10,13,00,49,8.70
2011,10,13,00,50,8.70
2011,10,13,00,51,8.70
2011,10,13,00,52,8.70
2011,10,13,00,53,8.70
2011,10,13,00,54,8.70
2011,10,13,00,55,8.70
2011,10,13,00,56,8.70
2011,10,13,00,57,8.70
2011,10,13,00,58,8.70
2011,10,13,00,59,8.70
2011,10,13,01,00,8.70
2011,10,13,01,01,8.70
2011,10,13,01,02,8.70
2011,10,13,01,03,8.60
2011,10,13,01,04,8.60
2011,10,13,01,05,8.60
2011,10,13,01,06,8.60
2011,10,13,01,07,8.60
2011,10,13,01,08,8.50
2011,10,13,01,09,8.50
2011,10,13,01,10,8.50
2011,10,13,01,11,8.50
2011,10,13,01,12,8.50
2011,10,13,01,13,8.50
2011,10,13,01,14,8.50
2011,10,13,01,15,8.50
2011,10,13,01,16,8.50
2011,10,13,01,17,8.50
2011,10,13,01,18,8.50
2011,10,13,01,19,8.50
2011,10,13,01,20,8.50
2011,10,13,01,21,8.50
2011,10,13,01,22,8.50
2011,10,13,01,23,8.40
2011,10,13,01,24,8.40
2011,10,13,01,25,8.40
2011,10,13,01,26,8.40
2011,10,13,01,27,8.40
2011,10,13,01,28,8.40
2011,10,13,01,29,8.40
2011,10,13,01,30,8.40
2011,10,13,01,31,8.40
2011,10,13,01,32,8.30
2011,10,13,01,33,8.30
2011,10,13,01,34,8.30
2011,10,13,01,35,8.30
2011,10,13,01,36,8.30
2011,10,13,01,37,8.30
2011,10,13,01,38,8.30
2011,10,13,01,39,8.30
2011,10,13,01,40,8.30
2011,10,13,01,41,8.30
2011,10,13,01,42,8.30
2011,10,13,01,43,8.30
2011,10,13,01,44,8.30
2011,10,13,01,45,8.30
2011,10,13,01,46,8.20
2011,10,13,01,47,8.20
2011,10,13,01,48,8.20
2011,10,13,01,49,8.20
2011,10,13,01,50,8.20
2011,10,13,01,51,8.20
2011,10,13,01,52,8.20
2011,10,13,01,53,8.20
2011,10,13,01,54,8.20
2011,10,13,01,55,8.20
2011,10,13,01,56,8.20
2011,10,13,01,57,8.20
2011,10,13,01,58,8.20
2011,10,13,01,59,8.20
2011,10,13,02,00,8.20
2011,10,13,02,01,8.20
2011,10,13,02,02,8.20
2011,10,13,02,03,8.20
2011,10,13,02,04,8.20
2011,10,13,02,05,8.20
2011,10,13,02,06,8.20
2011,10,13,02,07,8.20
2011,10,13,02,08,8.20
2011,10,13,02,09,8.20
2011,10,13,02,10,8.20
2011,10,13,02,11,8.20
2011,10,13,02,12,8.20
2011,10,13,02,13,8.20
2011,10,13,02,14,8.20
2011,10,13,02,15,8.10
2011,10,13,02,16,8.10
2011,10,13,02,17,8.10
2011,10,13,02,18,8.10
2011,10,13,02,19,8.10
2011,10,13,02,20,8.10
2011,10,13,02,21,8.00
2011,10,13,02,22,8.00
2011,10,13,02,23,8.00
2011,10,13,02,24,7.90
2011,10,13,02,25,7.90
2011,10,13,02,26,7.90
2011,10,13,02,27,7.90
2011,10,13,02,28,7.80
2011,10,13,02,29,7.80
2011,10,13,02,30,7.80
2011,10,13,02,31,7.70
2011,10,13,02,32,7.70
2011,10,13,02,33,7.70
2011,10,13,02,34,7.60
2011,10,13,02,35,7.60
2011,10,13,02,36,7.60
2011,10,13,02,37,7.60
2011,10,13,02,38,7.60
2011,10,13,02,39,7.60
2011,10,13,02,40,7.60
2011,10,13,02,41,7.60
2011,10,13,02,42,7.60
2011,10,13,02,43,7.60
2011,10,13,02,44,7.60
2011,10,13,02,45,7.60
2011,10,13,02,46,7.60
2011,10,13,02,47,7.60
2011,10,13,02,48,7.60
2011,10,13,02,49,7.60
2011,10,13,02,50,7.70
2011,10,13,02,51,7.70
2011,10,13,02,52,7.70
2011,10,13,02,53,7.70
2011,10,13,02,54,7.70
2011,10,13,02,55,7.80
2011,10,13,02,56,7.80
2011,10,13,02,57,7.80
2011,10,13,02,58,7.80
2011,10,13,02,59,7.80
2011,10,13,03,00,7.80
2011,10,13,03,01,7.80
2011,10,13,03,02,7.80
2011,10,13,03,03,7.80
2011,10,13,03,04,7.80
2011,10,13,03,05,7.80
2011,10,13,03,06,7.80
2011,10,13,03,07,7.80
2011,10,13,03,08,7.80
2011,10,13,03,09,7.80
2011,10,13,03,10,7.80
2011,10,13,03,11,7.80
2011,10,13,03,12,7.80
2011,10,13,03,13,7.70
2011,10,13,03,14,7.70
2011,10,13,03,15,7.70
2011,10,13,03,16,7.70
2011,10,13,03,17,7.70
2011,10,13,03,18,7.60
2011,10,13,03,19,7.60
2011,10,13,03,20,7.60
2011,10,13,03,21,7.60
2011,10,13,03,22,7.50
2011,10,13,03,23,7.50
2011,10,13,03,24,7.50
2011,10,13,03,25,7.50
2011,10,13,03,26,7.50
2011,10,13,03,27,7.50
2011,10,13,03,28,7.40
2011,10,13,03,29,7.40
2011,10,13,03,30,7.40
2011,10,13,03,31,7.40
2011,10,13,03,32,7.40
2011,10,13,03,33,7.40
2011,10,13,03,34,7.40
2011,10,13,03,35,7.40
2011,10,13,03,36,7.40
2011,10,13,03,37,7.40
2011,10,13,03,38,7.40
2011,10,13,03,39,7.40
2011,10,13,03,40,7.40
2011,10,13,03,41,7.40
2011,10,13,03,42,7.40
2011,10,13,03,43,7.40
2011,10,13,03,44,7.30
2011,10,13,03,45,7.30
2011,10,13,03,46,7.30
2011,10,13,03,47,7.30
2011,10,13,03,48,7.30
2011,10,13,03,49,7.30
2011,10,13,03,50,7.30
2011,10,13,03,51,7.30
2011,10,13,03,52,7.20
2011,10,13,03,53,7.20
2011,10,13,03,54,7.10
2011,10,13,03,55,7.00
2011,10,13,03,56,7.00
2011,10,13,03,57,7.00
2011,10,13,03,58,7.00
2011,10,13,03,59,7.00
2011,10,13,04,00,7.10
2011,10,13,04,01,7.10
2011,10,13,04,02,7.10
2011,10,13,04,03,7.20
2011,10,13,04,04,7.30
2011,10,13,04,05,7.30
2011,10,13,04,06,7.30
2011,10,13,04,07,7.30
2011,10,13,04,08,7.40
2011,10,13,04,09,7.40
2011,10,13,04,10,7.40
2011,10,13,04,11,7.50
2011,10,13,04,12,7.50
2011,10,13,04,13,7.50
2011,10,13,04,14,7.50
2011,10,13,04,15,7.50
2011,10,13,04,16,7.50
2011,10,13,04,17,7.40
2011,10,13,04,18,7.40
2011,10,13,04,19,7.30
2011,10,13,04,20,7.30
2011,10,13,04,21,7.30
2011,10,13,04,22,7.30
2011,10,13,04,23,7.30
2011,10,13,04,24,7.30
2011,10,13,04,25,7.30
2011,10,13,04,26,7.30
2011,10,13,04,27,7.30
2011,10,13,04,28,7.40
2011,10,13,04,29,7.40
2011,10,13,04,30,7.50
2011,10,13,04,31,7.50
2011,10,13,04,32,7.50
2011,10,13,04,33,7.60
2011,10,13,04,34,7.60
2011,10,13,04,35,7.70
2011,10,13,04,36,7.70
2011,10,13,04,37,7.70
2011,10,13,04,38,7.70
2011,10,13,04,39,7.70
2011,10,13,04,40,7.60
2011,10,13,04,41,7.60
2011,10,13,04,42,7.60
2011,10,13,04,43,7.70
2011,10,13,04,44,7.70
2011,10,13,04,45,7.70
2011,10,13,04,46,7.70
2011,10,13,04,47,7.60
2011,10,13,04,48,7.60
2011,10,13,04,49,7.60
2011,10,13,04,50,7.60
2011,10,13,04,51,7.60
2011,10,13,04,52,7.60
2011,10,13,04,53,7.60
2011,10,13,04,54,7.70
2011,10,13,04,55,7.70
2011,10,13,04,56,7.60
2011,10,13,04,57,7.60
2011,10,13,04,58,7.60
2011,10,13,04,59,7.60
2011,10,13,05,00,7.60
2011,10,13,05,01,7.60
2011,10,13,05,02,7.60
2011,10,13,05,03,7.60
2011,10,13,05,04,7.60
2011,10,13,05,05,7.60
2011,10,13,05,06,7.60
2011,10,13,05,07,7.60
2011,10,13,05,08,7.60
2011,10,13,05,09,7.60
2011,10,13,05,10,7.60
2011,10,13,05,11,7.60
2011,10,13,05,12,7.60
2011,10,13,05,13,7.60
2011,10,13,05,14,7.60
2011,10,13,05,15,7.60
2011,10,13,05,16,7.60
2011,10,13,05,17,7.60
2011,10,13,05,18,7.60
2011,10,13,05,19,7.60
2011,10,13,05,20,7.60
2011,10,13,05,21,7.60
2011,10,13,05,22,7.60
2011,10,13,05,23,7.60
2011,10,13,05,24,7.50
2011,10,13,05,25,7.50
2011,10,13,05,26,7.50
2011,10,13,05,27,7.50
2011,10,13,05,28,7.50
2011,10,13,05,29,7.50
2011,10,13,05,30,7.50
2011,10,13,05,31,7.50
2011,10,13,05,32,7.40
2011,10,13,05,33,7.40
2011,10,13,05,34,7.40
2011,10,13,05,35,7.40
2011,10,13,05,36,7.40
2011,10,13,05,37,7.40
2011,10,13,05,38,7.40
2011,10,13,05,39,7.40
2011,10,13,05,40,7.40
2011,10,13,05,41,7.30
2011,10,13,05,42,7.30
2011,10,13,05,43,7.30
2011,10,13,05,44,7.30
2011,10,13,05,45,7.30
2011,10,13,05,46,7.30
2011,10,13,05,47,7.30
2011,10,13,05,48,7.30
2011,10,13,05,49,7.30
2011,10,13,05,50,7.30
2011,10,13,05,51,7.30
2011,10,13,05,52,7.30
2011,10,13,05,53,7.30
2011,10,13,05,54,7.30
2011,10,13,05,55,7.30
2011,10,13,05,56,7.30
2011,10,13,05,57,7.30
2011,10,13,05,58,7.30
2011,10,13,05,59,7.30
2011,10,13,06,00,7.30
2011,10,13,06,01,7.30
2011,10,13,06,02,7.30
2011,10,13,06,03,7.30
2011,10,13,06,04,7.30
2011,10,13,06,05,7.30
2011,10,13,06,06,7.30
2011,10,13,06,07,7.30
2011,10,13,06,08,7.30
2011,10,13,06,09,7.30
2011,10,13,06,10,7.30
2011,10,13,06,11,7.30
2011,10,13,06,12,7.30
2011,10,13,06,13,7.30
2011,10,13,06,14,7.30
2011,10,13,06,15,7.30
2011,10,13,06,16,7.30
2011,10,13,06,17,7.30
2011,10,13,06,18,7.30
2011,10,13,06,19,7.30
2011,10,13,06,20,7.30
2011,10,13,06,21,7.30
2011,10,13,06,22,7.30
2011,10,13,06,23,7.30
2011,10,13,06,24,7.30
2011,10,13,06,25,7.30
2011,10,13,06,26,7.30
2011,10,13,06,27,7.30
2011,10,13,06,28,7.30
2011,10,13,06,29,7.30
2011,10,13,06,30,7.30
2011,10,13,06,31,7.30
2011,10,13,06,32,7.30
2011,10,13,06,33,7.30
2011,10,13,06,34,7.30
2011,10,13,06,35,7.30
2011,10,13,06,36,7.30
2011,10,13,06,37,7.30
2011,10,13,06,38,7.20
2011,10,13,06,39,7.20
2011,10,13,06,40,7.20
2011,10,13,06,41,7.20
2011,10,13,06,42,7.20
2011,10,13,06,43,7.10
2011,10,13,06,44,7.10
2011,10,13,06,45,7.10
2011,10,13,06,46,7.10
2011,10,13,06,47,7.10
2011,10,13,06,48,7.10
2011,10,13,06,49,7.10
2011,10,13,06,50,7.10
2011,10,13,06,51,7.10
2011,10,13,06,52,7.10
2011,10,13,06,53,7.10
2011,10,13,06,54,7.10
2011,10,13,06,55,7.10
2011,10,13,06,56,7.10
2011,10,13,06,57,7.10
2011,10,13,06,58,7.20
2011,10,13,06,59,7.20
2011,10,13,07,00,7.20
2011,10,13,07,01,7.20
2011,10,13,07,02,7.20
2011,10,13,07,03,7.20
2011,10,13,07,04,7.20
2011,10,13,07,05,7.20
2011,10,13,07,06,7.20
2011,10,13,07,07,7.20
2011,10,13,07,08,7.20
2011,10,13,07,09,7.20
2011,10,13,07,10,7.10
2011,10,13,07,11,7.10
2011,10,13,07,12,7.10
2011,10,13,07,13,7.10
2011,10,13,07,14,7.10
2011,10,13,07,15,7.10
2011,10,13,07,16,7.10
2011,10,13,07,17,7.10
2011,10,13,07,18,7.00
2011,10,13,07,19,7.00
2011,10,13,07,20,7.00
2011,10,13,07,21,7.00
2011,10,13,07,22,7.00
2011,10,13,07,23,7.00
2011,10,13,07,24,6.90
2011,10,13,07,25,6.90
2011,10,13,07,26,6.90
2011,10,13,07,27,6.90
2011,10,13,07,28,6.90
2011,10,13,07,29,6.90
2011,10,13,07,30,6.90
2011,10,13,07,31,6.90
2011,10,13,07,32,6.80
2011,10,13,07,33,6.80
2011,10,13,07,34,6.80
2011,10,13,07,35,6.80
2011,10,13,07,36,6.80
2011,10,13,07,37,6.80
2011,10,13,07,38,6.80
2011,10,13,07,39,6.80
2011,10,13,07,40,6.80
2011,10,13,07,41,6.80
2011,10,13,07,42,6.70
2011,10,13,07,43,6.70
2011,10,13,07,44,6.70
2011,10,13,07,45,6.70
2011,10,13,07,46,6.70
2011,10,13,07,47,6.70
2011,10,13,07,48,6.70
2011,10,13,07,49,6.70
2011,10,13,07,50,6.70
2011,10,13,07,51,6.70
2011,10,13,07,52,6.70
2011,10,13,07,53,6.60
2011,10,13,07,54,6.60
2011,10,13,07,55,6.60
2011,10,13,07,56,6.60
2011,10,13,07,57,6.60
2011,10,13,07,58,6.60
2011,10,13,07,59,6.70
2011,10,13,08,00,6.70
2011,10,13,08,01,6.70
2011,10,13,08,02,6.70
2011,10,13,08,03,6.70
2011,10,13,08,04,6.70
2011,10,13,08,05,6.70
2011,10,13,08,06,6.70
2011,10,13,08,07,6.70
2011,10,13,08,08,6.70
2011,10,13,08,09,6.80
2011,10,13,08,10,6.80
2011,10,13,08,11,6.80
2011,10,13,08,12,6.80
2011,10,13,08,13,6.80
2011,10,13,08,14,6.80
2011,10,13,08,15,6.80
2011,10,13,08,16,6.80
2011,10,13,08,17,6.90
2011,10,13,08,18,6.90
2011,10,13,08,19,6.90
2011,10,13,08,20,7.00
2011,10,13,08,21,7.00
2011,10,13,08,22,7.00
2011,10,13,08,23,7.00
2011,10,13,08,24,7.00
2011,10,13,08,25,7.00
2011,10,13,08,26,7.10
2011,10,13,08,27,7.10
2011,10,13,08,28,7.10
2011,10,13,08,29,7.10
2011,10,13,08,30,7.20
2011,10,13,08,31,7.20
2011,10,13,08,32,7.20
2011,10,13,08,33,7.20
2011,10,13,08,34,7.20
2011,10,13,08,35,7.30
2011,10,13,08,36,7.30
2011,10,13,08,37,7.30
2011,10,13,08,38,7.30
2011,10,13,08,39,7.30
2011,10,13,08,40,7.30
2011,10,13,08,41,7.30
2011,10,13,08,42,7.30
2011,10,13,08,43,7.30
2011,10,13,08,44,7.40
2011,10,13,08,45,7.40
2011,10,13,08,46,7.40
2011,10,13,08,47,7.40
2011,10,13,08,48,7.40
2011,10,13,08,49,7.40
2011,10,13,08,50,7.50
2011,10,13,08,51,7.50
2011,10,13,08,52,7.50
2011,10,13,08,53,7.50
2011,10,13,08,54,7.60
2011,10,13,08,55,7.60
2011,10,13,08,56,7.60
2011,10,13,08,57,7.60
2011,10,13,08,58,7.60
2011,10,13,08,59,7.60
2011,10,13,09,00,7.70
2011,10,13,09,01,7.70
2011,10,13,09,02,7.70
2011,10,13,09,03,7.70
2011,10,13,09,04,7.70
2011,10,13,09,05,7.80
2011,10,13,09,06,7.80
2011,10,13,09,07,7.80
2011,10,13,09,08,7.80
2011,10,13,09,09,7.80
2011,10,13,09,10,7.80
2011,10,13,09,11,7.80
2011,10,13,09,12,7.80
2011,10,13,09,13,7.80
2011,10,13,09,14,7.80
2011,10,13,09,15,7.80
2011,10,13,09,16,7.80
2011,10,13,09,17,7.80
2011,10,13,09,18,7.80
2011,10,13,09,19,7.80
2011,10,13,09,20,7.80
2011,10,13,09,21,7.80
2011,10,13,09,22,7.80
2011,10,13,09,23,7.90
2011,10,13,09,24,7.90
2011,10,13,09,25,7.90
2011,10,13,09,26,8.00
2011,10,13,09,27,8.00
2011,10,13,09,28,8.10
2011,10,13,09,29,8.10
2011,10,13,09,30,8.10
2011,10,13,09,31,8.10
2011,10,13,09,32,8.10
2011,10,13,09,33,8.00
2011,10,13,09,34,8.00
2011,10,13,09,35,8.00
2011,10,13,09,36,8.00
2011,10,13,09,37,8.00
2011,10,13,09,38,8.00
2011,10,13,09,39,8.00
2011,10,13,09,40,8.00
2011,10,13,09,41,8.00
2011,10,13,09,42,8.00
2011,10,13,09,43,8.00
2011,10,13,09,44,8.10
2011,10,13,09,45,8.10
2011,10,13,09,46,8.10
2011,10,13,09,47,8.10
2011,10,13,09,48,8.10
2011,10,13,09,49,8.10
2011,10,13,09,50,8.10
2011,10,13,09,51,8.20
2011,10,13,09,52,8.20
2011,10,13,09,53,8.20
2011,10,13,09,54,8.20
2011,10,13,09,55,8.20
2011,10,13,09,56,8.20
2011,10,13,09,57,8.20
2011,10,13,09,58,8.30
2011,10,13,09,59,8.30
2011,10,13,10,00,8.30
2011,10,13,10,01,8.30
2011,10,13,10,02,8.30
2011,10,13,10,03,8.30
2011,10,13,10,04,8.30
2011,10,13,10,05,8.30
2011,10,13,10,06,8.40
2011,10,13,10,07,8.40
2011,10,13,10,08,8.40
2011,10,13,10,09,8.40
2011,10,13,10,10,8.40
2011,10,13,10,11,8.40
2011,10,13,10,12,8.40
2011,10,13,10,13,8.40
2011,10,13,10,14,8.40
2011,10,13,10,15,8.50
2011,10,13,10,16,8.50
2011,10,13,10,17,8.50
2011,10,13,10,18,8.50
2011,10,13,10,19,8.50
2011,10,13,10,20,8.50
2011,10,13,10,21,8.50
2011,10,13,10,22,8.50
2011,10,13,10,23,8.50
2011,10,13,10,24,8.50
2011,10,13,10,25,8.50
2011,10,13,10,26,8.50
2011,10,13,10,27,8.60
2011,10,13,10,28,8.60
2011,10,13,10,29,8.60
2011,10,13,10,30,8.60
2011,10,13,10,31,8.70
2011,10,13,10,32,8.70
2011,10,13,10,33,8.70
2011,10,13,10,34,8.70
2011,10,13,10,35,8.70
2011,10,13,10,36,8.70
2011,10,13,10,37,8.80
2011,10,13,10,38,8.90
2011,10,13,10,39,8.90
2011,10,13,10,40,8.90
2011,10,13,10,41,9.00
2011,10,13,10,42,9.10
2011,10,13,10,43,9.10
2011,10,13,10,44,9.20
2011,10,13,10,45,9.20
2011,10,13,10,46,9.20
2011,10,13,10,47,9.20
2011,10,13,10,48,9.20
2011,10,13,10,49,9.20
2011,10,13,10,50,9.30
2011,10,13,10,51,9.30
2011,10,13,10,52,9.30
2011,10,13,10,53,9.40
2011,10,13,10,54,9.40
2011,10,13,10,55,9.40
2011,10,13,10,56,9.40
2011,10,13,10,57,9.40
2011,10,13,10,58,9.40
2011,10,13,10,59,9.40
2011,10,13,11,00,9.40
2011,10,13,11,01,9.40
2011,10,13,11,02,9.40
2011,10,13,11,03,9.40
2011,10,13,11,04,9.40
2011,10,13,11,05,9.50
2011,10,13,11,06,9.50
2011,10,13,11,07,9.50
2011,10,13,11,08,9.60
2011,10,13,11,09,9.60
2011,10,13,11,10,9.60
2011,10,13,11,11,9.60
2011,10,13,11,12,9.70
2011,10,13,11,13,9.70
2011,10,13,11,14,9.70
2011,10,13,11,15,9.70
2011,10,13,11,16,9.70
2011,10,13,11,17,9.80
2011,10,13,11,18,9.70
2011,10,13,11,19,9.70
2011,10,13,11,20,9.70
2011,10,13,11,21,9.80
2011,10,13,11,22,9.80
2011,10,13,11,23,9.70
2011,10,13,11,24,9.70
2011,10,13,11,25,9.70
2011,10,13,11,26,9.80
2011,10,13,11,27,9.80
2011,10,13,11,28,9.80
2011,10,13,11,29,9.80
2011,10,13,11,30,9.80
2011,10,13,11,31,9.80
2011,10,13,11,32,9.70
2011,10,13,11,33,9.70
2011,10,13,11,34,9.70
2011,10,13,11,35,9.70
2011,10,13,11,36,9.70
2011,10,13,11,37,9.70
2011,10,13,11,38,9.70
2011,10,13,11,39,9.70
2011,10,13,11,40,9.80
2011,10,13,11,41,9.80
2011,10,13,11,42,9.80
2011,10,13,11,43,9.70
2011,10,13,11,44,9.80
2011,10,13,11,45,9.80
2011,10,13,11,46,9.80
2011,10,13,11,47,9.70
2011,10,13,11,48,9.70
2011,10,13,11,49,9.70
2011,10,13,11,50,9.70
2011,10,13,11,51,9.70
2011,10,13,11,52,9.80
2011,10,13,11,53,9.80
2011,10,13,11,54,9.90
2011,10,13,11,55,9.90
2011,10,13,11,56,9.90
2011,10,13,11,57,10.00
2011,10,13,11,58,10.10
2011,10,13,11,59,10.20
2011,10,13,12,00,10.20
2011,10,13,12,01,10.30
2011,10,13,12,02,10.20
2011,10,13,12,03,10.30
2011,10,13,12,04,10.20
2011,10,13,12,05,10.20
2011,10,13,12,06,10.10
2011,10,13,12,07,10.10
2011,10,13,12,08,10.10
2011,10,13,12,09,10.10
2011,10,13,12,10,10.10
2011,10,13,12,11,10.10
2011,10,13,12,12,10.10
2011,10,13,12,13,10.10
2011,10,13,12,14,10.10
2011,10,13,12,15,10.10
2011,10,13,12,16,10.10
2011,10,13,12,17,10.00
2011,10,13,12,18,9.90
2011,10,13,12,19,9.90
2011,10,13,12,20,9.90
2011,10,13,12,21,10.00
2011,10,13,12,22,10.10
2011,10,13,12,23,10.20
2011,10,13,12,24,10.30
2011,10,13,12,25,10.40
2011,10,13,12,26,10.50
2011,10,13,12,27,10.60
2011,10,13,12,28,10.60
2011,10,13,12,29,10.70
2011,10,13,12,30,10.70
2011,10,13,12,31,10.80
2011,10,13,12,32,10.80
2011,10,13,12,33,10.90
2011,10,13,12,34,10.90
2011,10,13,12,35,10.90
2011,10,13,12,36,10.90
2011,10,13,12,37,10.90
2011,10,13,12,38,10.90
2011,10,13,12,39,10.90
2011,10,13,12,40,10.90
2011,10,13,12,41,10.90
2011,10,13,12,42,10.90
2011,10,13,12,43,10.90
2011,10,13,12,44,10.80
2011,10,13,12,45,10.70
2011,10,13,12,46,10.70
2011,10,13,12,47,10.60
2011,10,13,12,48,10.60
2011,10,13,12,49,10.60
2011,10,13,12,50,10.60
2011,10,13,12,51,10.60
2011,10,13,12,52,10.60
2011,10,13,12,53,10.60
2011,10,13,12,54,10.60
2011,10,13,12,55,10.60
2011,10,13,12,56,10.60
2011,10,13,12,57,10.60
2011,10,13,12,58,10.60
2011,10,13,12,59,10.60
2011,10,13,13,00,10.60
2011,10,13,13,01,10.60
2011,10,13,13,02,10.60
2011,10,13,13,03,10.60
2011,10,13,13,04,10.60
2011,10,13,13,05,10.70
2011,10,13,13,06,10.80
2011,10,13,13,07,10.80
2011,10,13,13,08,10.90
2011,10,13,13,09,11.00
2011,10,13,13,10,11.10
2011,10,13,13,11,11.10
2011,10,13,13,12,11.10
2011,10,13,13,13,11.10
2011,10,13,13,14,11.10
2011,10,13,13,15,11.10
2011,10,13,13,16,11.10
2011,10,13,13,17,11.30
2011,10,13,13,18,11.30
2011,10,13,13,19,11.40
2011,10,13,13,20,11.40
2011,10,13,13,21,11.50
2011,10,13,13,22,11.60
2011,10,13,13,23,11.50
2011,10,13,13,24,11.40
2011,10,13,13,25,11.40
2011,10,13,13,26,11.40
2011,10,13,13,27,11.40
2011,10,13,13,28,11.30
2011,10,13,13,29,11.30
2011,10,13,13,30,11.20
2011,10,13,13,31,11.20
2011,10,13,13,32,11.10
2011,10,13,13,33,11.10
2011,10,13,13,34,11.10
2011,10,13,13,35,11.20
2011,10,13,13,36,11.20
2011,10,13,13,37,11.10
2011,10,13,13,38,11.10
2011,10,13,13,39,11.10
2011,10,13,13,40,11.20
2011,10,13,13,41,11.20
2011,10,13,13,42,11.20
2011,10,13,13,43,11.20
2011,10,13,13,44,11.10
2011,10,13,13,45,11.10
2011,10,13,13,46,11.10
2011,10,13,13,47,11.20
2011,10,13,13,48,11.20
2011,10,13,13,49,11.20
2011,10,13,13,50,11.20
2011,10,13,13,51,11.20
2011,10,13,13,52,11.30
2011,10,13,13,53,11.30
2011,10,13,13,54,11.40
2011,10,13,13,55,11.40
2011,10,13,13,56,11.50
2011,10,13,13,57,11.60
2011,10,13,13,58,11.60
2011,10,13,13,59,11.60
2011,10,13,14,00,11.60
2011,10,13,14,01,11.60
2011,10,13,14,02,11.60
2011,10,13,14,03,11.70
2011,10,13,14,04,11.70
2011,10,13,14,05,11.80
2011,10,13,14,06,11.80
2011,10,13,14,07,11.90
2011,10,13,14,08,12.00
2011,10,13,14,09,12.00
2011,10,13,14,10,12.00
2011,10,13,14,11,12.00
2011,10,13,14,12,11.90
2011,10,13,14,13,11.90
2011,10,13,14,14,11.90
2011,10,13,14,15,11.90
2011,10,13,14,16,11.90
2011,10,13,14,17,11.90
2011,10,13,14,18,11.90
2011,10,13,14,19,11.80
2011,10,13,14,20,11.80
2011,10,13,14,21,11.80
2011,10,13,14,22,11.70
2011,10,13,14,23,11.60
2011,10,13,14,24,11.50
2011,10,13,14,25,11.40
2011,10,13,14,26,11.40
2011,10,13,14,27,11.30
2011,10,13,14,28,11.30
2011,10,13,14,29,11.20
2011,10,13,14,30,11.20
2011,10,13,14,31,11.20
2011,10,13,14,32,11.10
2011,10,13,14,33,11.10
2011,10,13,14,34,11.10
2011,10,13,14,35,11.10
2011,10,13,14,36,11.10
2011,10,13,14,37,11.10
2011,10,13,14,38,11.10
2011,10,13,14,39,11.20
2011,10,13,14,40,11.20
2011,10,13,14,41,11.30
2011,10,13,14,42,11.40
2011,10,13,14,43,11.50
2011,10,13,14,44,11.50
2011,10,13,14,45,11.40
2011,10,13,14,46,11.40
2011,10,13,14,47,11.40
2011,10,13,14,48,11.40
2011,10,13,14,49,11.40
2011,10,13,14,50,11.40
2011,10,13,14,51,11.40
2011,10,13,14,52,11.40
2011,10,13,14,53,11.30
2011,10,13,14,54,11.30
2011,10,13,14,55,11.30
2011,10,13,14,56,11.30
2011,10,13,14,57,11.20
2011,10,13,14,58,11.20
2011,10,13,14,59,11.10
2011,10,13,15,00,11.10
2011,10,13,15,01,11.20
2011,10,13,15,02,11.20
2011,10,13,15,03,11.30
2011,10,13,15,04,11.40
2011,10,13,15,05,11.30
2011,10,13,15,06,11.30
2011,10,13,15,07,11.20
2011,10,13,15,08,11.20
2011,10,13,15,09,11.20
2011,10,13,15,10,11.20
2011,10,13,15,11,11.20
2011,10,13,15,12,11.20
2011,10,13,15,13,11.10
2011,10,13,15,14,11.10
2011,10,13,15,15,11.10
2011,10,13,15,16,11.10
2011,10,13,15,17,11.10
2011,10,13,15,18,11.00
2011,10,13,15,19,10.90
2011,10,13,15,20,11.00
2011,10,13,15,21,11.10
2011,10,13,15,22,11.10
2011,10,13,15,23,11.10
2011,10,13,15,24,11.10
2011,10,13,15,25,11.10
2011,10,13,15,26,11.20
2011,10,13,15,27,11.20
2011,10,13,15,28,11.20
2011,10,13,15,29,11.20
2011,10,13,15,30,11.20
2011,10,13,15,31,11.20
2011,10,13,15,32,11.20
2011,10,13,15,33,11.20
2011,10,13,15,34,11.10
2011,10,13,15,35,11.10
2011,10,13,15,36,11.10
2011,10,13,15,37,11.10
2011,10,13,15,38,11.20
2011,10,13,15,39,11.30
2011,10,13,15,40,11.30
2011,10,13,15,41,11.30
2011,10,13,15,42,11.40
2011,10,13,15,43,11.40
2011,10,13,15,44,11.40
2011,10,13,15,45,11.40
2011,10,13,15,46,11.40
2011,10,13,15,47,11.40
2011,10,13,15,48,11.40
2011,10,13,15,49,11.30
2011,10,13,15,50,11.30
2011,10,13,15,51,11.20
2011,10,13,15,52,11.20
2011,10,13,15,53,11.20
2011,10,13,15,54,11.20
2011,10,13,15,55,11.20
2011,10,13,15,56,11.20
2011,10,13,15,57,11.10
2011,10,13,15,58,11.10
2011,10,13,15,59,11.10
2011,10,13,16,00,11.10
2011,10,13,16,01,11.10
2011,10,13,16,02,11.10
2011,10,13,16,03,11.10
2011,10,13,16,04,11.20
2011,10,13,16,05,11.20
2011,10,13,16,06,11.20
2011,10,13,16,07,11.20
2011,10,13,16,08,11.20
2011,10,13,16,09,11.20
2011,10,13,16,10,11.10
2011,10,13,16,11,11.10
2011,10,13,16,12,11.10
2011,10,13,16,13,11.10
2011,10,13,16,14,11.10
2011,10,13,16,15,11.10
2011,10,13,16,16,11.10
2011,10,13,16,17,11.10
2011,10,13,16,18,11.10
2011,10,13,16,19,11.10
2011,10,13,16,20,11.20
2011,10,13,16,21,11.20
2011,10,13,16,22,11.20
2011,10,13,16,23,11.30
2011,10,13,16,24,11.30
2011,10,13,16,25,11.30
2011,10,13,16,26,11.30
2011,10,13,16,27,11.40
2011,10,13,16,28,11.40
2011,10,13,16,29,11.40
2011,10,13,16,30,11.40
2011,10,13,16,31,11.40
2011,10,13,16,32,11.30
2011,10,13,16,33,11.30
2011,10,13,16,34,11.20
2011,10,13,16,35,11.20
2011,10,13,16,36,11.20
2011,10,13,16,37,11.10
2011,10,13,16,38,11.10
2011,10,13,16,39,11.10
2011,10,13,16,40,11.10
2011,10,13,16,41,11.10
2011,10,13,16,42,11.10
2011,10,13,16,43,11.10
2011,10,13,16,44,11.10
2011,10,13,16,45,11.10
2011,10,13,16,46,11.10
2011,10,13,16,47,11.10
2011,10,13,16,48,11.10
2011,10,13,16,49,11.10
2011,10,13,16,50,11.10
2011,10,13,16,51,11.10
2011,10,13,16,52,11.10
2011,10,13,16,53,11.10
2011,10,13,16,54,11.10
2011,10,13,16,55,11.10
2011,10,13,16,56,11.10
2011,10,13,16,57,11.00
2011,10,13,16,58,10.90
2011,10,13,16,59,10.90
2011,10,13,17,00,10.90
2011,10,13,17,01,11.00
2011,10,13,17,02,10.90
2011,10,13,17,03,10.90
2011,10,13,17,04,10.90
2011,10,13,17,05,10.90
2011,10,13,17,06,10.90
2011,10,13,17,07,10.90
2011,10,13,17,08,10.90
2011,10,13,17,09,10.90
2011,10,13,17,10,10.90
2011,10,13,17,11,10.90
2011,10,13,17,12,10.90
2011,10,13,17,13,10.90
2011,10,13,17,14,10.80
2011,10,13,17,15,10.80
2011,10,13,17,16,10.80
2011,10,13,17,17,10.80
2011,10,13,17,18,10.80
2011,10,13,17,19,10.80
2011,10,13,17,20,10.80
2011,10,13,17,21,10.80
2011,10,13,17,22,10.80
2011,10,13,17,23,10.80
2011,10,13,17,24,10.80
2011,10,13,17,25,10.80
2011,10,13,17,26,10.80
2011,10,13,17,27,10.80
2011,10,13,17,28,10.80
2011,10,13,17,29,10.80
2011,10,13,17,30,10.80
2011,10,13,17,31,10.80
2011,10,13,17,32,10.80
2011,10,13,17,33,10.80
2011,10,13,17,34,10.80
2011,10,13,17,35,10.70
2011,10,13,17,36,10.70
2011,10,13,17,37,10.70
2011,10,13,17,38,10.60
2011,10,13,17,39,10.60
2011,10,13,17,40,10.60
2011,10,13,17,41,10.60
2011,10,13,17,42,10.60
2011,10,13,17,43,10.60
2011,10,13,17,44,10.60
2011,10,13,17,45,10.60
2011,10,13,17,46,10.60
2011,10,13,17,47,10.60
2011,10,13,17,48,10.60
2011,10,13,17,49,10.60
2011,10,13,17,50,10.50